| time (UTC) | temp F | wind direction | speed MPH | gust MPH | rain 1hr in | rain 24hr in | rain mn in | humidity % | barometer mb |
| 20260510185321 | 100 | 142 | 5.0 | 9.0 | 0.00 | 0.00 | 0.00 | 8 | 1010.1 |
| 20260510184813 | 100 | 148 | 5.0 | 11.0 | 0.00 | 0.00 | 0.00 | 9 | 1010.0 |
| 20260510184324 | 100 | 188 | 6.0 | 11.0 | 0.00 | 0.00 | 0.00 | 9 | 1010.1 |
| 20260510183821 | 100 | 167 | 3.0 | 10.0 | 0.00 | 0.00 | 0.00 | 9 | 1010.0 |
| 20260510183333 | 100 | 146 | 6.0 | 12.0 | 0.00 | 0.00 | 0.00 | 9 | 1010.1 |
| 20260510182826 | 100 | 105 | 7.0 | 11.0 | 0.00 | 0.00 | 0.00 | 8 | 1010.0 |
| 20260510182337 | 99 | 99 | 5.0 | 9.0 | 0.00 | 0.00 | 0.00 | 9 | 1010.1 |
| 20260510181829 | 99 | 168 | 3.0 | 9.0 | 0.00 | 0.00 | 0.00 | 10 | 1010.0 |
| 20260510181319 | 99 | 111 | 4.0 | 9.0 | 0.00 | 0.00 | 0.00 | 10 | 1010.0 |
| 20260510180851 | 99 | 134 | 3.0 | 7.0 | 0.00 | 0.00 | 0.00 | 10 | 1010.0 |
| 20260510180322 | 98 | 182 | 4.0 | 9.0 | 0.00 | 0.00 | 0.00 | 10 | 1010.0 |
| 20260510175830 | 98 | 207 | 4.0 | 9.0 | 0.00 | 0.00 | 0.00 | 11 | 1010.0 |
| 20260510175322 | 98 | 220 | 3.0 | 10.0 | 0.00 | 0.00 | 0.00 | 10 | 1010.0 |
| 20260510174818 | 98 | 192 | 3.0 | 6.0 | 0.00 | 0.00 | 0.00 | 11 | 1010.0 |
| 20260510174329 | 98 | 146 | 3.0 | 8.0 | 0.00 | 0.00 | 0.00 | 10 | 1010.0 |
| 20260510173821 | 97 | 117 | 4.0 | 8.0 | 0.00 | 0.00 | 0.00 | 10 | 1010.0 |
| 20260510173352 | 97 | 193 | 4.0 | 7.0 | 0.00 | 0.00 | 0.00 | 11 | 1010.0 |
| 20260510172824 | 96 | 285 | 2.0 | 5.0 | 0.00 | 0.00 | 0.00 | 11 | 1010.1 |
| 20260510172315 | 96 | 282 | 3.0 | 5.0 | 0.00 | 0.00 | 0.00 | 11 | 1010.0 |
| 20260510171828 | 96 | 192 | 2.0 | 4.0 | 0.00 | 0.00 | 0.00 | 11 | 1010.0 |
| 20260510171319 | 96 | 315 | 2.0 | 5.0 | 0.00 | 0.00 | 0.00 | 11 | 1009.9 |
| 20260510170817 | 95 | 306 | 1.0 | 5.0 | 0.00 | 0.00 | 0.00 | 11 | 1010.0 |
| 20260510170349 | 95 | 275 | 3.0 | 7.0 | 0.00 | 0.00 | 0.00 | 11 | 1009.9 |
| 20260510165817 | 94 | 292 | 4.0 | 8.0 | 0.00 | 0.00 | 0.00 | 11 | 1009.9 |
| 20260510165328 | 94 | 280 | 3.0 | 9.0 | 0.00 | 0.00 | 0.00 | 12 | 1009.9 |
| 20260510164821 | 93 | 321 | 5.0 | 9.0 | 0.00 | 0.00 | 0.00 | 12 | 1009.9 |
| 20260510164332 | 93 | 286 | 5.0 | 9.0 | 0.00 | 0.00 | 0.00 | 13 | 1009.9 |
| 20260510163824 | 92 | 295 | 6.0 | 10.0 | 0.00 | 0.00 | 0.00 | 13 | 1009.8 |
| 20260510163335 | 92 | 284 | 7.0 | 10.0 | 0.00 | 0.00 | 0.00 | 13 | 1009.8 |
| 20260510162847 | 91 | 296 | 5.0 | 9.0 | 0.00 | 0.00 | 0.00 | 12 | 1009.8 |
| 20260510162317 | 91 | 271 | 7.0 | 9.0 | 0.00 | 0.00 | 0.00 | 12 | 1009.7 |
| 20260510161814 | 90 | 269 | 6.0 | 9.0 | 0.00 | 0.00 | 0.00 | 12 | 1009.7 |
| 20260510161326 | 90 | 254 | 7.0 | 10.0 | 0.00 | 0.00 | 0.00 | 12 | 1009.7 |
| 20260510160840 | 90 | 271 | 7.0 | 10.0 | 0.00 | 0.00 | 0.00 | 12 | 1009.6 |
| 20260510160350 | 89 | 271 | 8.0 | 10.0 | 0.00 | 0.00 | 0.00 | 13 | 1009.6 |
| 20260510155819 | 89 | 294 | 8.0 | 10.0 | 0.00 | 0.00 | 0.00 | 13 | 1009.5 |
| 20260510155350 | 88 | 292 | 7.0 | 10.0 | 0.00 | 0.00 | 0.00 | 14 | 1009.5 |
| 20260510154822 | 88 | 300 | 8.0 | 10.0 | 0.00 | 0.00 | 0.00 | 14 | 1009.5 |
| 20260510154331 | 88 | 262 | 8.0 | 10.0 | 0.00 | 0.00 | 0.00 | 14 | 1009.5 |
| 20260510153824 | 88 | 265 | 8.0 | 10.0 | 0.00 | 0.00 | 0.00 | 15 | 1009.5 |
| 20260510153316 | 87 | 269 | 8.0 | 10.0 | 0.00 | 0.00 | 0.00 | 15 | 1009.6 |
| 20260510152829 | 87 | 294 | 8.0 | 10.0 | 0.00 | 0.00 | 0.00 | 15 | 1009.5 |
| 20260510152340 | 86 | 274 | 8.0 | 9.0 | 0.00 | 0.00 | 0.00 | 15 | 1009.5 |
| 20260510151817 | 86 | 293 | 7.0 | 10.0 | 0.00 | 0.00 | 0.00 | 17 | 1009.5 |
| 20260510151329 | 85 | 300 | 7.0 | 10.0 | 0.00 | 0.00 | 0.00 | 18 | 1009.4 |
| 20260510150821 | 85 | 285 | 6.0 | 10.0 | 0.00 | 0.00 | 0.00 | 19 | 1009.5 |
| 20260510150313 | 84 | 299 | 8.0 | 10.0 | 0.00 | 0.00 | 0.00 | 20 | 1009.4 |
| 20260510145822 | 83 | 295 | 9.0 | 12.0 | 0.00 | 0.00 | 0.00 | 20 | 1009.4 |
| 20260510145353 | 82 | 293 | 8.0 | 12.0 | 0.00 | 0.00 | 0.00 | 21 | 1009.4 |
| 20260510144825 | 82 | 297 | 9.0 | 13.0 | 0.00 | 0.00 | 0.00 | 22 | 1009.4 |
| 20260510144317 | 81 | 278 | 9.0 | 12.0 | 0.00 | 0.00 | 0.00 | 22 | 1009.3 |
| 20260510143830 | 81 | 310 | 8.0 | 15.0 | 0.00 | 0.00 | 0.00 | 22 | 1009.3 |
| 20260510143342 | 81 | 277 | 10.0 | 15.0 | 0.00 | 0.00 | 0.00 | 23 | 1009.2 |
| 20260510142818 | 80 | 319 | 8.0 | 14.0 | 0.00 | 0.00 | 0.00 | 23 | 1009.2 |
| 20260510142330 | 80 | 273 | 11.0 | 14.0 | 0.00 | 0.00 | 0.00 | 23 | 1009.1 |
| 20260510141822 | 79 | 292 | 8.0 | 13.0 | 0.00 | 0.00 | 0.00 | 23 | 1009.1 |
| 20260510141334 | 79 | 290 | 9.0 | 12.0 | 0.00 | 0.00 | 0.00 | 23 | 1009.0 |
| 20260510140826 | 78 | 302 | 10.0 | 12.0 | 0.00 | 0.00 | 0.00 | 23 | 1008.9 |
| 20260510140318 | 78 | 307 | 8.0 | 11.0 | 0.00 | 0.00 | 0.00 | 23 | 1008.9 |
| 20260510135822 | 78 | 315 | 6.0 | 12.0 | 0.00 | 0.00 | 0.00 | 22 | 1008.9 |
| 20260510135314 | 77 | 304 | 9.0 | 12.0 | 0.00 | 0.00 | 0.00 | 22 | 1008.8 |
| 20260510134827 | 77 | 301 | 6.0 | 11.0 | 0.00 | 0.00 | 0.00 | 21 | 1008.9 |
| 20260510134323 | 77 | 317 | 9.0 | 11.0 | 0.00 | 0.00 | 0.00 | 21 | 1008.7 |
| 20260510133816 | 77 | 308 | 9.0 | 12.0 | 0.00 | 0.00 | 0.00 | 21 | 1008.6 |
| 20260510133328 | 77 | 306 | 10.0 | 13.0 | 0.00 | 0.00 | 0.00 | 21 | 1008.6 |
| 20260510132821 | 76 | 5 | 10.0 | 13.0 | 0.00 | 0.00 | 0.00 | 21 | 1008.5 |
| 20260510132349 | 76 | 301 | 10.0 | 12.0 | 0.00 | 0.00 | 0.00 | 22 | 1008.4 |
| 20260510131842 | 75 | 301 | 10.0 | 12.0 | 0.00 | 0.00 | 0.00 | 23 | 1008.4 |
| 20260510131352 | 75 | 306 | 9.0 | 13.0 | 0.00 | 0.00 | 0.00 | 23 | 1008.3 |
| 20260510130824 | 75 | 317 | 8.0 | 14.0 | 0.00 | 0.00 | 0.00 | 23 | 1008.2 |
| 20260510130316 | 75 | 321 | 10.0 | 14.0 | 0.00 | 0.00 | 0.00 | 24 | 1008.1 |
| 20260510125826 | 75 | 300 | 11.0 | 14.0 | 0.00 | 0.00 | 0.00 | 25 | 1008.1 |
| 20260510125323 | 75 | 316 | 10.0 | 13.0 | 0.00 | 0.00 | 0.00 | 24 | 1008.1 |
| 20260510124816 | 74 | 317 | 10.0 | 13.0 | 0.00 | 0.00 | 0.00 | 24 | 1008.1 |
| 20260510124329 | 74 | 320 | 11.0 | 13.0 | 0.00 | 0.00 | 0.00 | 24 | 1008.0 |
| 20260510123822 | 75 | 329 | 9.0 | 12.0 | 0.00 | 0.00 | 0.00 | 24 | 1008.0 |
| 20260510123313 | 75 | 327 | 10.0 | 14.0 | 0.00 | 0.00 | 0.00 | 23 | 1008.0 |
| 20260510122845 | 75 | 312 | 11.0 | 14.0 | 0.00 | 0.00 | 0.00 | 23 | 1008.0 |
| 20260510122315 | 76 | 320 | 10.0 | 13.0 | 0.00 | 0.00 | 0.00 | 22 | 1007.9 |
| 20260510121827 | 76 | 300 | 10.0 | 16.0 | 0.00 | 0.00 | 0.00 | 22 | 1008.0 |
| 20260510121339 | 76 | 311 | 12.0 | 16.0 | 0.00 | 0.00 | 0.00 | 22 | 1007.9 |
| 20260510120830 | 76 | 302 | 14.0 | 16.0 | 0.00 | 0.00 | 0.00 | 22 | 1008.0 |
| 20260510120325 | 76 | 281 | 14.0 | 16.0 | 0.00 | 0.00 | 0.00 | 23 | 1007.9 |
| 20260510115814 | 76 | 312 | 11.0 | 15.0 | 0.00 | 0.00 | 0.00 | 23 | 1008.0 |
| 20260510115345 | 76 | 292 | 12.0 | 15.0 | 0.00 | 0.00 | 0.00 | 24 | 1007.9 |
| 20260510114816 | 76 | 311 | 10.0 | 15.0 | 0.00 | 0.00 | 0.00 | 24 | 1007.9 |
| 20260510114327 | 75 | 314 | 11.0 | 15.0 | 0.00 | 0.00 | 0.00 | 25 | 1007.9 |
| 20260510113819 | 75 | 315 | 10.0 | 15.0 | 0.00 | 0.00 | 0.00 | 25 | 1007.9 |
| 20260510113330 | 75 | 323 | 12.0 | 15.0 | 0.00 | 0.00 | 0.00 | 25 | 1008.0 |
| 20260510112822 | 75 | 319 | 11.0 | 15.0 | 0.00 | 0.00 | 0.00 | 25 | 1008.0 |
| 20260510112313 | 75 | 301 | 11.0 | 15.0 | 0.00 | 0.00 | 0.00 | 26 | 1007.9 |
| 20260510111826 | 74 | 309 | 10.0 | 14.0 | 0.00 | 0.00 | 0.00 | 26 | 1008.0 |
| 20260510111321 | 75 | 313 | 10.0 | 14.0 | 0.00 | 0.00 | 0.00 | 26 | 1007.9 |
| 20260510110813 | 75 | 301 | 11.0 | 16.0 | 0.00 | 0.00 | 0.00 | 27 | 1007.9 |
| 20260510110324 | 75 | 296 | 12.0 | 16.0 | 0.00 | 0.00 | 0.00 | 27 | 1008.0 |
| 20260510105853 | 75 | 278 | 11.0 | 13.0 | 0.00 | 0.00 | 0.00 | 27 | 1008.0 |
| 20260510105323 | 75 | 286 | 9.0 | 14.0 | 0.00 | 0.00 | 0.00 | 27 | 1008.1 |
| 20260510104815 | 76 | 321 | 12.0 | 15.0 | 0.00 | 0.00 | 0.00 | 27 | 1008.0 |
| 20260510104326 | 76 | 297 | 12.0 | 16.0 | 0.00 | 0.00 | 0.00 | 27 | 1008.0 |
| 20260510103818 | 75 | 280 | 13.0 | 15.0 | 0.00 | 0.00 | 0.00 | 27 | 1007.9 |
| 20260510103313 | 75 | 282 | 10.0 | 14.0 | 0.00 | 0.00 | 0.00 | 27 | 1007.9 |
| 20260510102826 | 75 | 304 | 10.0 | 15.0 | 0.00 | 0.00 | 0.00 | 26 | 1007.9 |
| 20260510102317 | 75 | 290 | 12.0 | 15.0 | 0.00 | 0.00 | 0.00 | 26 | 1007.9 |
| 20260510101830 | 75 | 302 | 11.0 | 13.0 | 0.00 | 0.00 | 0.00 | 26 | 1007.9 |
| 20260510101322 | 75 | 303 | 10.0 | 14.0 | 0.00 | 0.00 | 0.00 | 26 | 1007.9 |
| 20260510100814 | 75 | 308 | 11.0 | 14.0 | 0.00 | 0.00 | 0.00 | 26 | 1007.9 |
| 20260510100324 | 75 | 311 | 10.0 | 13.0 | 0.00 | 0.00 | 0.00 | 26 | 1008.0 |
| 20260510095815 | 76 | 303 | 10.0 | 13.0 | 0.00 | 0.00 | 0.00 | 26 | 1008.0 |
| 20260510095327 | 76 | 267 | 11.0 | 14.0 | 0.00 | 0.00 | 0.00 | 26 | 1008.0 |
| 20260510094823 | 76 | 309 | 11.0 | 14.0 | 0.00 | 0.00 | 0.00 | 27 | 1008.0 |
| 20260510094313 | 76 | 306 | 10.0 | 14.0 | 0.00 | 0.00 | 0.00 | 27 | 1008.0 |
| 20260510093827 | 76 | 300 | 11.0 | 14.0 | 0.00 | 0.00 | 0.00 | 27 | 1008.0 |
| 20260510093318 | 76 | 313 | 11.0 | 14.0 | 0.00 | 0.00 | 0.00 | 27 | 1008.0 |
| 20260510092831 | 76 | 309 | 11.0 | 14.0 | 0.00 | 0.00 | 0.00 | 27 | 1008.0 |
| 20260510092322 | 77 | 302 | 11.0 | 15.0 | 0.00 | 0.00 | 0.00 | 27 | 1007.9 |
| 20260510091815 | 77 | 302 | 12.0 | 15.0 | 0.00 | 0.00 | 0.00 | 27 | 1007.9 |
| 20260510091326 | 76 | 308 | 11.0 | 13.0 | 0.00 | 0.00 | 0.00 | 27 | 1007.9 |
| 20260510090823 | 77 | 317 | 10.0 | 13.0 | 0.00 | 0.00 | 0.00 | 27 | 1007.9 |
| 20260510090314 | 77 | 292 | 11.0 | 14.0 | 0.00 | 0.00 | 0.00 | 27 | 1008.0 |
| 20260510085823 | 76 | 310 | 11.0 | 14.0 | 0.00 | 0.00 | 0.00 | 27 | 1008.0 |
| 20260510085314 | 76 | 293 | 9.0 | 12.0 | 0.00 | 0.00 | 0.00 | 27 | 1008.0 |
| 20260510084828 | 76 | 287 | 9.0 | 14.0 | 0.00 | 0.00 | 0.00 | 27 | 1008.0 |
| 20260510084319 | 76 | 317 | 10.0 | 14.0 | 0.00 | 0.00 | 0.00 | 28 | 1008.0 |
| 20260510083832 | 75 | 301 | 10.0 | 12.0 | 0.00 | 0.00 | 0.00 | 28 | 1008.1 |
| 20260510083324 | 76 | 286 | 8.0 | 10.0 | 0.00 | 0.00 | 0.00 | 30 | 1008.1 |
| 20260510082838 | 76 | 295 | 8.0 | 10.0 | 0.00 | 0.00 | 0.00 | 29 | 1008.1 |
| 20260510082348 | 77 | 289 | 7.0 | 12.0 | 0.00 | 0.00 | 0.00 | 29 | 1008.2 |
| 20260510081823 | 77 | 279 | 8.0 | 14.0 | 0.00 | 0.00 | 0.00 | 29 | 1008.2 |
| 20260510081313 | 77 | 300 | 10.0 | 16.0 | 0.00 | 0.00 | 0.00 | 29 | 1008.2 |
| 20260510080846 | 77 | 320 | 13.0 | 16.0 | 0.00 | 0.00 | 0.00 | 29 | 1008.2 |
| 20260510080337 | 78 | 306 | 12.0 | 14.0 | 0.00 | 0.00 | 0.00 | 29 | 1008.3 |
| 20260510075825 | 78 | 304 | 12.0 | 15.0 | 0.00 | 0.00 | 0.00 | 30 | 1008.4 |
| 20260510075316 | 78 | 308 | 12.0 | 16.0 | 0.00 | 0.00 | 0.00 | 30 | 1008.3 |
| 20260510074849 | 78 | 321 | 11.0 | 16.0 | 0.00 | 0.00 | 0.00 | 30 | 1008.4 |
| 20260510074318 | 78 | 304 | 11.0 | 16.0 | 0.00 | 0.00 | 0.00 | 30 | 1008.4 |
| 20260510073851 | 78 | 340 | 11.0 | 16.0 | 0.00 | 0.00 | 0.00 | 31 | 1008.5 |
| 20260510073320 | 78 | 327 | 10.0 | 13.0 | 0.00 | 0.00 | 0.00 | 31 | 1008.5 |
| 20260510072853 | 78 | 292 | 10.0 | 13.0 | 0.00 | 0.00 | 0.00 | 31 | 1008.5 |
| 20260510072326 | 78 | 333 | 10.0 | 15.0 | 0.00 | 0.00 | 0.00 | 32 | 1008.5 |
| 20260510071840 | 78 | 308 | 11.0 | 20.0 | 0.00 | 0.00 | 0.00 | 33 | 1008.5 |
| 20260510071331 | 78 | 321 | 13.0 | 20.0 | 0.00 | 0.00 | 0.00 | 33 | 1008.5 |
| 20260510070824 | 79 | 315 | 11.0 | 18.0 | 0.00 | 0.00 | 0.00 | 32 | 1008.6 |
| 20260510070315 | 79 | 324 | 13.0 | 21.0 | 0.00 | 0.00 | 0.00 | 33 | 1008.5 |
| 20260510065825 | 79 | 283 | 15.0 | 21.0 | 0.00 | 0.00 | 0.00 | 33 | 1008.5 |
| 20260510065317 | 79 | 302 | 13.0 | 20.0 | 0.00 | 0.00 | 0.00 | 33 | 1008.6 |
| 20260510064830 | 79 | 290 | 14.0 | 20.0 | 0.00 | 0.00 | 0.00 | 33 | 1008.5 |
| 20260510064320 | 79 | 298 | 13.0 | 24.0 | 0.00 | 0.00 | 0.00 | 33 | 1008.4 |
| 20260510063818 | 79 | 289 | 17.0 | 24.0 | 0.00 | 0.00 | 0.00 | 34 | 1008.3 |
| 20260510063329 | 79 | 284 | 16.0 | 23.0 | 0.00 | 0.00 | 0.00 | 34 | 1008.3 |
| 20260510062821 | 79 | 291 | 15.0 | 22.0 | 0.00 | 0.00 | 0.00 | 34 | 1008.2 |
| 20260510062329 | 79 | 302 | 17.0 | 26.0 | 0.00 | 0.00 | 0.00 | 35 | 1008.2 |
| 20260510061842 | 79 | 283 | 19.0 | 26.0 | 0.00 | 0.00 | 0.00 | 35 | 1008.2 |
| 20260510061332 | 79 | 277 | 20.0 | 27.0 | 0.00 | 0.00 | 0.00 | 35 | 1008.1 |
| 20260510060824 | 79 | 277 | 18.0 | 27.0 | 0.00 | 0.00 | 0.00 | 35 | 1008.1 |
| 20260510060314 | 79 | 277 | 20.0 | 27.0 | 0.00 | 0.00 | 0.00 | 34 | 1008.2 |
| 20260510055823 | 79 | 269 | 17.0 | 27.0 | 0.00 | 0.00 | 0.00 | 34 | 1008.2 |
| 20260510055332 | 79 | 291 | 20.0 | 25.0 | 0.00 | 0.00 | 0.00 | 34 | 1008.2 |
| 20260510054828 | 79 | 265 | 17.0 | 22.0 | 0.00 | 0.00 | 0.00 | 34 | 1008.1 |
| 20260510054319 | 79 | 273 | 17.0 | 23.0 | 0.00 | 0.00 | 0.00 | 34 | 1008.1 |
| 20260510053832 | 79 | 290 | 15.0 | 23.0 | 0.00 | 0.00 | 0.00 | 35 | 1008.1 |
| 20260510053322 | 79 | 271 | 15.0 | 21.0 | 0.00 | 0.00 | 0.00 | 34 | 1008.2 |
| 20260510052815 | 79 | 281 | 14.0 | 21.0 | 0.00 | 0.00 | 0.00 | 35 | 1008.1 |
| 20260510052325 | 80 | 300 | 14.0 | 21.0 | 0.00 | 0.00 | 0.00 | 35 | 1008.2 |
| 20260510051817 | 80 | 289 | 15.0 | 24.0 | 0.00 | 0.00 | 0.00 | 35 | 1008.1 |
| 20260510051328 | 80 | 306 | 14.0 | 24.0 | 0.00 | 0.00 | 0.00 | 35 | 1008.2 |
| 20260510050822 | 80 | 289 | 16.0 | 24.0 | 0.00 | 0.00 | 0.00 | 35 | 1008.1 |
| 20260510050318 | 80 | 294 | 15.0 | 21.0 | 0.00 | 0.00 | 0.00 | 34 | 1008.1 |
| 20260510045827 | 80 | 264 | 15.0 | 25.0 | 0.00 | 0.00 | 0.00 | 35 | 1008.1 |
| 20260510045319 | 80 | 273 | 18.0 | 26.0 | 0.00 | 0.00 | 0.00 | 34 | 1008.1 |
| 20260510044830 | 80 | 289 | 18.0 | 27.0 | 0.00 | 0.00 | 0.00 | 34 | 1008.1 |
| 20260510044320 | 80 | 264 | 18.0 | 27.0 | 0.00 | 0.00 | 0.00 | 34 | 1008.1 |
| 20260510043854 | 80 | 259 | 16.0 | 29.0 | 0.00 | 0.00 | 0.00 | 34 | 1008.0 |
| 20260510043324 | 81 | 279 | 21.0 | 29.0 | 0.00 | 0.00 | 0.00 | 34 | 1008.0 |
| 20260510042816 | 81 | 269 | 21.0 | 31.0 | 0.00 | 0.00 | 0.00 | 34 | 1008.0 |
| 20260510042328 | 81 | 292 | 23.0 | 31.0 | 0.00 | 0.00 | 0.00 | 33 | 1007.9 |
| 20260510041825 | 81 | 263 | 24.0 | 32.0 | 0.00 | 0.00 | 0.00 | 33 | 1007.8 |
| 20260510041316 | 82 | 273 | 25.0 | 32.0 | 0.00 | 0.00 | 0.00 | 33 | 1007.7 |
| 20260510040827 | 82 | 273 | 24.0 | 29.0 | 0.00 | 0.00 | 0.00 | 33 | 1007.7 |
| 20260510040317 | 82 | 278 | 20.0 | 29.0 | 0.00 | 0.00 | 0.00 | 32 | 1007.8 |
| 20260510035827 | 82 | 294 | 21.0 | 29.0 | 0.00 | 0.00 | 0.00 | 32 | 1007.7 |
| 20260510035319 | 82 | 298 | 24.0 | 30.0 | 0.00 | 0.00 | 0.00 | 32 | 1007.6 |
| 20260510034831 | 83 | 296 | 22.0 | 30.0 | 0.00 | 0.00 | 0.00 | 32 | 1007.6 |
| 20260510034322 | 83 | 280 | 23.0 | 32.0 | 0.00 | 0.00 | 0.00 | 32 | 1007.6 |
| 20260510033815 | 83 | 284 | 21.0 | 32.0 | 0.00 | 0.00 | 0.00 | 31 | 1007.5 |
| 20260510033326 | 83 | 285 | 22.0 | 32.0 | 0.00 | 0.00 | 0.00 | 31 | 1007.5 |
| 20260510032823 | 83 | 274 | 22.0 | 28.0 | 0.00 | 0.00 | 0.00 | 31 | 1007.3 |
| 20260510032315 | 84 | 286 | 21.0 | 28.0 | 0.00 | 0.00 | 0.00 | 31 | 1007.3 |
| 20260510031848 | 84 | 294 | 19.0 | 30.0 | 0.00 | 0.00 | 0.00 | 30 | 1007.2 |
| 20260510031318 | 84 | 280 | 22.0 | 30.0 | 0.00 | 0.00 | 0.00 | 30 | 1007.3 |
| 20260510030832 | 85 | 284 | 22.0 | 30.0 | 0.00 | 0.00 | 0.00 | 30 | 1007.1 |
| 20260510030322 | 85 | 272 | 19.0 | 30.0 | 0.00 | 0.00 | 0.00 | 29 | 1007.0 |
| 20260510025832 | 85 | 286 | 18.0 | 31.0 | 0.00 | 0.00 | 0.00 | 29 | 1007.0 |
| 20260510025324 | 86 | 280 | 23.0 | 30.0 | 0.00 | 0.00 | 0.00 | 29 | 1006.9 |
| 20260510024820 | 86 | 284 | 23.0 | 30.0 | 0.00 | 0.00 | 0.00 | 28 | 1006.8 |
| 20260510024330 | 87 | 275 | 21.0 | 31.0 | 0.00 | 0.00 | 0.00 | 28 | 1006.8 |
| 20260510023843 | 87 | 281 | 23.0 | 31.0 | 0.00 | 0.00 | 0.00 | 27 | 1006.7 |
| 20260510023313 | 88 | 284 | 22.0 | 30.0 | 0.00 | 0.00 | 0.00 | 27 | 1006.7 |
| 20260510022826 | 88 | 263 | 21.0 | 30.0 | 0.00 | 0.00 | 0.00 | 26 | 1006.6 |
| 20260510022317 | 89 | 296 | 19.0 | 29.0 | 0.00 | 0.00 | 0.00 | 26 | 1006.5 |
| 20260510021831 | 89 | 290 | 21.0 | 29.0 | 0.00 | 0.00 | 0.00 | 25 | 1006.5 |
| 20260510021322 | 89 | 255 | 20.0 | 32.0 | 0.00 | 0.00 | 0.00 | 25 | 1006.5 |
| 20260510020834 | 90 | 303 | 19.0 | 32.0 | 0.00 | 0.00 | 0.00 | 24 | 1006.4 |
| 20260510020325 | 90 | 278 | 18.0 | 28.0 | 0.00 | 0.00 | 0.00 | 24 | 1006.4 |
| 20260510015817 | 91 | 302 | 20.0 | 34.0 | 0.00 | 0.00 | 0.00 | 23 | 1006.3 |
| 20260510015328 | 91 | 306 | 23.0 | 34.0 | 0.00 | 0.00 | 0.00 | 23 | 1006.3 |
| 20260510014820 | 92 | 307 | 22.0 | 28.0 | 0.00 | 0.00 | 0.00 | 22 | 1006.3 |
| 20260510014352 | 92 | 314 | 18.0 | 27.0 | 0.00 | 0.00 | 0.00 | 22 | 1006.3 |
| 20260510013821 | 93 | 321 | 20.0 | 28.0 | 0.00 | 0.00 | 0.00 | 21 | 1006.3 |
| 20260510013352 | 93 | 319 | 21.0 | 28.0 | 0.00 | 0.00 | 0.00 | 20 | 1006.2 |
| 20260510012823 | 93 | 279 | 20.0 | 30.0 | 0.00 | 0.00 | 0.00 | 20 | 1006.1 |
| 20260510012333 | 94 | 272 | 19.0 | 26.0 | 0.00 | 0.00 | 0.00 | 19 | 1006.1 |
| 20260510011846 | 94 | 270 | 21.0 | 27.0 | 0.00 | 0.00 | 0.00 | 19 | 1006.1 |
| 20260510011316 | 94 | 289 | 21.0 | 28.0 | 0.00 | 0.00 | 0.00 | 18 | 1006.1 |
| 20260510010849 | 95 | 284 | 20.0 | 28.0 | 0.00 | 0.00 | 0.00 | 18 | 1006.1 |
| 20260510010318 | 95 | 279 | 19.0 | 26.0 | 0.00 | 0.00 | 0.00 | 18 | 1006.0 |
| 20260510005827 | 95 | 277 | 19.0 | 28.0 | 0.00 | 0.00 | 0.00 | 17 | 1006.1 |
| 20260510005321 | 96 | 268 | 19.0 | 31.0 | 0.00 | 0.00 | 0.00 | 17 | 1006.1 |
| 20260510004834 | 96 | 268 | 22.0 | 31.0 | 0.00 | 0.00 | 0.00 | 17 | 1006.0 |
| 20260510004344 | 96 | 269 | 22.0 | 29.0 | 0.00 | 0.00 | 0.00 | 17 | 1005.9 |
| 20260510003816 | 97 | 250 | 19.0 | 25.0 | 0.00 | 0.00 | 0.00 | 17 | 1005.9 |
| 20260510003327 | 97 | 271 | 18.0 | 28.0 | 0.00 | 0.00 | 0.00 | 17 | 1006.0 |
| 20260510002839 | 97 | 254 | 23.0 | 28.0 | 0.00 | 0.00 | 0.00 | 17 | 1005.9 |
| 20260510002330 | 97 | 254 | 16.0 | 25.0 | 0.00 | 0.00 | 0.00 | 16 | 1006.0 |
| 20260510001841 | 98 | 264 | 19.0 | 26.0 | 0.00 | 0.00 | 0.00 | 15 | 1006.0 |
| 20260510001331 | 98 | 259 | 20.0 | 26.0 | 0.00 | 0.00 | 0.00 | 16 | 1006.0 |
| 20260510000822 | 98 | 269 | 17.0 | 27.0 | 0.00 | 0.00 | 0.00 | 14 | 1006.0 |
| 20260510000313 | 98 | 263 | 18.0 | 27.0 | 0.00 | 0.00 | 0.00 | 15 | 1006.0 |
| 20260509235827 | 98 | 250 | 15.0 | 23.0 | 0.00 | 0.00 | 0.00 | 15 | 1006.0 |
| 20260509235318 | 98 | 280 | 18.0 | 25.0 | 0.00 | 0.00 | 0.00 | 14 | 1006.1 |
| 20260509234831 | 99 | 259 | 17.0 | 26.0 | 0.00 | 0.00 | 0.00 | 14 | 1006.1 |
| 20260509234323 | 98 | 261 | 15.0 | 25.0 | 0.00 | 0.00 | 0.00 | 13 | 1006.1 |
| 20260509233818 | 98 | 250 | 20.0 | 25.0 | 0.00 | 0.00 | 0.00 | 14 | 1006.1 |
| 20260509233350 | 99 | 271 | 18.0 | 24.0 | 0.00 | 0.00 | 0.00 | 12 | 1006.2 |
| 20260509232821 | 99 | 273 | 13.0 | 23.0 | 0.00 | 0.00 | 0.00 | 11 | 1006.2 |
| 20260509232313 | 100 | 252 | 15.0 | 23.0 | 0.00 | 0.00 | 0.00 | 11 | 1006.2 |
| 20260509231827 | 100 | 264 | 12.0 | 18.0 | 0.00 | 0.00 | 0.00 | 10 | 1006.3 |
| 20260509231322 | 100 | 293 | 13.0 | 21.0 | 0.00 | 0.00 | 0.00 | 11 | 1006.4 |
| 20260509230835 | 99 | 220 | 13.0 | 21.0 | 0.00 | 0.00 | 0.00 | 10 | 1006.3 |
| 20260509230346 | 100 | 261 | 16.0 | 23.0 | 0.00 | 0.00 | 0.00 | 11 | 1006.4 |
| 20260509225814 | 100 | 234 | 16.0 | 23.0 | 0.00 | 0.00 | 0.00 | 10 | 1006.5 |
| 20260509225347 | 100 | 277 | 11.0 | 20.0 | 0.00 | 0.00 | 0.00 | 10 | 1006.5 |
| 20260509224820 | 99 | 254 | 13.0 | 24.0 | 0.00 | 0.00 | 0.00 | 11 | 1006.7 |
| 20260509224331 | 100 | 263 | 15.0 | 24.0 | 0.00 | 0.00 | 0.00 | 10 | 1006.7 |
| 20260509223824 | 100 | 284 | 17.0 | 23.0 | 0.00 | 0.00 | 0.00 | 10 | 1006.7 |
| 20260509223315 | 100 | 273 | 11.0 | 24.0 | 0.00 | 0.00 | 0.00 | 11 | 1006.7 |
| 20260509222829 | 100 | 283 | 17.0 | 24.0 | 0.00 | 0.00 | 0.00 | 11 | 1006.8 |
| 20260509222325 | 99 | 251 | 14.0 | 20.0 | 0.00 | 0.00 | 0.00 | 11 | 1006.8 |
| 20260509221818 | 100 | 240 | 14.0 | 20.0 | 0.00 | 0.00 | 0.00 | 11 | 1006.9 |
| 20260509221351 | 100 | 310 | 13.0 | 25.0 | 0.00 | 0.00 | 0.00 | 11 | 1007.0 |
| 20260509220824 | 100 | 248 | 11.0 | 20.0 | 0.00 | 0.00 | 0.00 | 11 | 1007.0 |
| 20260509220315 | 99 | 227 | 10.0 | 20.0 | 0.00 | 0.00 | 0.00 | 11 | 1007.2 |
| 20260509215826 | 100 | 255 | 14.0 | 19.0 | 0.00 | 0.00 | 0.00 | 11 | 1007.3 |
| 20260509215316 | 100 | 259 | 14.0 | 19.0 | 0.00 | 0.00 | 0.00 | 11 | 1007.3 |
| 20260509214829 | 100 | 180 | 7.0 | 13.0 | 0.00 | 0.00 | 0.00 | 11 | 1007.3 |
| 20260509214319 | 101 | 238 | 8.0 | 17.0 | 0.00 | 0.00 | 0.00 | 11 | 1007.4 |
| 20260509213817 | 100 | 205 | 9.0 | 17.0 | 0.00 | 0.00 | 0.00 | 11 | 1007.5 |
| 20260509213327 | 100 | 283 | 10.0 | 14.0 | 0.00 | 0.00 | 0.00 | 11 | 1007.5 |
| 20260509212821 | 100 | 223 | 5.0 | 16.0 | 0.00 | 0.00 | 0.00 | 11 | 1007.5 |
| 20260509212313 | 100 | 253 | 10.0 | 16.0 | 0.00 | 0.00 | 0.00 | 11 | 1007.6 |
| 20260509211826 | 99 | 276 | 3.0 | 11.0 | 0.00 | 0.00 | 0.00 | 11 | 1007.7 |
| 20260509211318 | 99 | 267 | 8.0 | 17.0 | 0.00 | 0.00 | 0.00 | 11 | 1007.8 |
| 20260509210831 | 100 | 291 | 13.0 | 17.0 | 0.00 | 0.00 | 0.00 | 11 | 1007.8 |
| 20260509210324 | 100 | 249 | 5.0 | 11.0 | 0.00 | 0.00 | 0.00 | 11 | 1007.9 |
| 20260509205814 | 100 | 259 | 6.0 | 9.0 | 0.00 | 0.00 | 0.00 | 11 | 1008.0 |
| 20260509205347 | 99 | 313 | 0.0 | 12.0 | 0.00 | 0.00 | 0.00 | 11 | 1008.1 |
| 20260509204824 | 99 | 282 | 5.0 | 9.0 | 0.00 | 0.00 | 0.00 | 11 | 1008.2 |
| 20260509204336 | 99 | 284 | 6.0 | 15.0 | 0.00 | 0.00 | 0.00 | 10 | 1008.2 |
| 20260509203849 | 99 | 238 | 11.0 | 15.0 | 0.00 | 0.00 | 0.00 | 11 | 1008.3 |
| 20260509203320 | 99 | 269 | 11.0 | 20.0 | 0.00 | 0.00 | 0.00 | 10 | 1008.3 |
| 20260509202813 | 99 | 215 | 10.0 | 20.0 | 0.00 | 0.00 | 0.00 | 11 | 1008.3 |
| 20260509202325 | 99 | 240 | 5.0 | 8.0 | 0.00 | 0.00 | 0.00 | 11 | 1008.4 |
| 20260509201837 | 98 | 292 | 1.0 | 10.0 | 0.00 | 0.00 | 0.00 | 11 | 1008.5 |
| 20260509201328 | 98 | 279 | 6.0 | 13.0 | 0.00 | 0.00 | 0.00 | 11 | 1008.5 |
| 20260509200820 | 98 | 259 | 6.0 | 13.0 | 0.00 | 0.00 | 0.00 | 11 | 1008.5 |
| 20260509200316 | 99 | 295 | 9.0 | 15.0 | 0.00 | 0.00 | 0.00 | 11 | 1008.6 |
| 20260509195825 | 99 | 179 | 9.0 | 15.0 | 0.00 | 0.00 | 0.00 | 11 | 1008.6 |
| 20260509195316 | 99 | 212 | 4.0 | 8.0 | 0.00 | 0.00 | 0.00 | 12 | 1008.7 |
| 20260509194829 | 98 | 167 | 5.0 | 9.0 | 0.00 | 0.00 | 0.00 | 11 | 1008.7 |
| 20260509194319 | 98 | 192 | 7.0 | 10.0 | 0.00 | 0.00 | 0.00 | 11 | 1008.8 |
| 20260509193831 | 97 | 180 | 8.0 | 14.0 | 0.00 | 0.00 | 0.00 | 11 | 1008.9 |
| 20260509193322 | 97 | 288 | 8.0 | 14.0 | 0.00 | 0.00 | 0.00 | 12 | 1008.9 |
| 20260509192813 | 96 | 225 | 6.0 | 11.0 | 0.00 | 0.00 | 0.00 | 12 | 1008.9 |
| 20260509192324 | 96 | 240 | 4.0 | 14.0 | 0.00 | 0.00 | 0.00 | 13 | 1008.9 |
| 20260509191820 | 96 | 257 | 8.0 | 13.0 | 0.00 | 0.00 | 0.00 | 13 | 1009.0 |
| 20260509191351 | 96 | 202 | 5.0 | 13.0 | 0.00 | 0.00 | 0.00 | 14 | 1009.2 |
| 20260509190822 | 96 | 284 | 10.0 | 13.0 | 0.00 | 0.00 | 0.00 | 14 | 1009.2 |
| 20260509190314 | 95 | 196 | 7.0 | 11.0 | 0.00 | 0.00 | 0.00 | 13 | 1009.3 |
| 20260509185822 | 95 | 164 | 6.0 | 15.0 | 0.00 | 0.00 | 0.00 | 13 | 1009.3 |